SCP
0 0 0 0 0 0 0 0 0 0 0 0 0 0 0 0 0 0 0 0 0 0 0 0 0 0 0 0 0 0 0 0 0 0 0 0 0 0
0 0 0 0 0 0 0 0 0 0 0 0 0 0 0 0 0 0 0 0 0 0 0 0 0 0 0 0 0 0 0 0 0 0 0 0 0 0
0 0 0 0 0 0 0 0 0 0 0 0 0 0 0 0 0 0 0 0 0 0 0 0 0 0 0 0 0 0 0 0 0 0 0 0 0 0
0 0 0 0 0 0 0 0 0 0 0 0 0 0 0 0 0 0 0 0 0 0 0 0 0 0 0 0 0 0 0 0 0 0 0 0 0 0
0 0 0 0 0 0 0 0 0 0 0 0 0 0 0 0 0 0 0 0 0 0 0 0 0 0 0 0 0 0 0 0 0 0 0 0 0 0
0 0 0 0 0 0 0 0 0 0 0 0 0 0 0 0 0 0 0 0 0 0 0 0 0 0 0 0 0 0 0 0 0 0 0 0 0 0
0 0 0 0 0 0 0 0 0 0 0 0 0 0 0 0 0 0 0 0 0 0 0 0 0 0 0 0 0 0 0 0 0 0 0 0 0 0
0 0 0 0 0 0 0 0 0 0 0 0 0 0 0 0 0 0 0 0 0 0 0 0 0 0 0 0 0 0 0 0 0 0 0 0 0 0
0 0 0 0 0 0 0 0 0 0 0 0 0 0 0 0 0 0 0 0 0 0 0 0 0 0 0 0 0 0 0 0 0 0 0 0 0 0
0 0 0 0 0 0 0 0 0 0 0 0 0 0 0 0 0 0 0 0 0 0 0 0 0 0 0 0 0 0 0 0 0 0 0 0 0 0
0 0 0 0 0 0 0 0 0 0 0 0 0 0 0 0 0 0 0 0 0 0 0 0 0 0 0 0 0 0 0 0 0 0 0 0 0 0
0 0 0 0 0 0 0 0 0 0 0 0 0 0 0 0 0 0 0 0 0 0 0 0 0 0 0 0 0 0 0 0 0 0 0 0 0 0
0 0 0 0 0 0 0 0 0 0 0 0 0 0 0 0 0 0 0 0 0 0 0 0 0 0 0 0 0 0 0 0 0 0 0 0 0 0
0 0 0 0 0 0 0 0 0 0 0 0 0 0 0 0 0 0 0 0 0 0 0 0 0 0 0 0 0 0 0 0 0 0 0 0 0 0
0 0 0 0 0 0 0 0 0 0 0 0 0 0 0 0 0 0 0 0 0 0 0 0 0 0 0 0 0 0 0 0 0 0 0 0 0 0
0 0 0 0 0 0 0 0 0 0 0 0 0 0 0 0 0 0 0 0 0 0 0 0 0 0 0 0 0 0 0 0 0 0 0 0 0 0
0 0 0 0 0 0 0 0 0 0 0 0 0 0 0 0 0 0 0 0 0 0 0 0 0 0 0 0 0 0 0 0 0 0 0 0 0 0
0 0 0 0 0 0 0 0 0 0 0 0 0 0 0 0 0 0 0 0 0 0 0 0 0 0 0 0 0 0 0 0 0 0 0 0 0 0
0 0 0 0 0 0 0 0 0 0 0 0 0 0 0 0 0 0 0 0 0 0 0 0 0 0 0 0 0 0 0 0 0 0 0 0 0 0
0 0 0 0 0 0 0 0 0 0 0 0 0 0 0 0 0 0 0 0 0 0 0 0 0 0 0 0 0 0 0 0 0 0 0 0 0 0
0 0 0 0 0 0 0 0 0 0 0 0 0 0 0 0 0 0 0 0 0 0 0 0 0 0 0 0 0 0 0 0 0 0 0 0 0 0
0 0 0 0 0 0 0 0 0 0 0 0 0 0 0 0 0 0 0 0 0 0 0 0 0 0 0 0 0 0 0 0 0 0 0 0 0 0
0 0 0 0 0 0 0 0 0 0 0 0 0 0 0 0 0 0 0 0 0 0 0 0 0 0 0 0 0 0 0 0 0 0 0 0 0 0
Wind_Speed
8 8 5 4 3 2 3 3 5 5 4 4 3 4 4 4 4 6 7 8 12 16 17 18 19 19 20 21 21 21 21 22 22 22 23 23 23 24
6 8 6 5 5 4 4 4 3 4 3 2 2 3 4 4 6 7 8 11 14 16 17 18 19 20 21 21 21 21 22 22 22 23 24 24 24 24
9 10 9 8 6 5 5 5 4 4 3 2 2 2 4 5 6 7 7 8 9 14 17 19 20 21 21 21 21 21 21 22 23 23 24 24 25 25
11 11 11 8 8 6 5 5 4 3 3 3 3 4 5 6 7 8 8 8 9 14 18 19 20 21 21 20 20 21 21 22 23 23 24 25 26 26
10 10 10 10 9 6 6 5 3 3 2 2 3 3 4 5 7 8 9 9 9 11 15 17 19 19 19 20 21 21 22 23 24 24 25 25 26 26
9 9 9 8 8 7 5 5 4 3 3 4 5 5 5 6 6 7 7 7 8 9 12 14 16 18 20 21 22 23 23 23 23 24 24 25 25 26
10 9 8 9 9 6 4 4 4 3 4 4 5 5 6 5 6 6 8 8 9 9 9 8 9 10 12 16 19 21 22 22 23 24 24 25 26 26
10 9 8 8 7 5 4 5 6 5 5 5 6 7 7 7 6 6 8 9 8 5 8 10 10 12 11 11 16 21 23 24 25 25 25 26 26 27
8 7 5 5 5 2 1 3 5 7 8 7 8 8 8 7 7 9 9 10 11 10 11 13 11 12 11 12 20 23 24 25 25 25 25 25 25 26
7 6 5 3 2 2 3 4 5 5 6 6 7 8 8 8 8 9 11 12 13 11 11 12 11 12 11 11 18 22 24 24 25 25 25 25 25 25
5 4 2 1 2 4 4 4 5 5 6 9 11 12 14 14 12 9 9 9 10 10 8 8 9 11 11 12 13 18 20 21 23 24 25 25 25 24
3 2 1 2 3 4 4 5 6 6 6 7 8 9 10 11 12 10 8 8 7 7 6 6 8 8 8 8 9 9 11 17 21 23 24 24 23 15
1 0 1 3 5 5 5 4 6 8 8 8 7 7 7 6 6 6 6 7 8 9 7 6 7 7 8 8 9 10 11 11 11 13 17 20 21 17
1 1 2 4 6 5 5 7 10 9 6 6 7 7 6 6 5 6 8 9 11 13 13 10 8 8 9 11 11 10 10 11 11 12 11 15 17 20
2 4 4 5 5 5 6 8 7 5 5 6 6 6 6 7 7 7 8 9 12 13 14 14 13 11 11 12 12 12 13 12 11 10 9 9 10 10
3 2 3 4 5 6 6 4 4 4 5 6 7 7 7 7 7 7 7 7 8 9 8 10 12 13 12 14 13 15 13 11 10 11 11 11 11 11
4 3 4 3 3 3 3 4 4 4 5 5 6 7 7 7 7 6 6 6 7 9 10 7 8 10 14 14 14 15 14 13 12 12 12 13 12 12
4 4 4 4 4 4 4 4 4 4 4 5 6 7 7 7 8 7 7 8 9 10 10 10 9 10 10 12 17 17 14 13 12 12 12 14 14 12
4 4 4 4 4 4 4 5 5 5 5 6 7 7 7 7 8 8 8 8 9 10 11 10 10 10 13 14 9 12 12 13 13 13 12 13 15 13
3 4 4 4 4 5 5 5 6 6 5 6 7 7 7 7 8 9 9 10 10 11 12 11 10 10 12 15 16 15 15 15 13 14 14 13 14 18
4 4 5 5 5 5 5 6 6 7 7 7 7 8 7 8 9 9 10 14 13 12 13 13 12 16 13 13 14 14 12 13 16 14 15 14 15 14
5 5 5 6 6 6 6 6 7 7 8 8 8 8 8 8 10 11 11 11 11 12 15 14 13 12 12 14 16 18 18 15 13 19 23 22 14 11
5 6 6 6 6 6 6 7 9 8 8 8 8 8 8 9 9 10 11 12 12 14 15 15 13 12 12 13 15 16 19 19 15 14 12 15 22 28
Wind_Direction
199 186 168 147 134 126 123 141 153 164 172 156 164 180 191 206 206 254 273 278 291 295 297 297 295 293 292 291 289 288 288 287 285 284 282 280 279 278
166 161 148 140 126 113 105 90 90 120 139 145 176 172 192 216 237 267 278 285 281 286 289 290 290 289 288 286 285 285 285 285 284 282 281 281 280 279
160 156 147 139 128 117 106 100 94 102 141 144 170 196 219 239 253 264 272 277 280 281 284 288 288 286 284 284 283 283 282 282 282 281 281 282 282 281
157 148 142 133 123 117 112 110 114 118 143 184 203 208 232 253 268 275 278 279 280 284 287 287 285 284 284 282 281 280 281 282 283 283 282 282 281 280
143 140 135 130 124 120 118 121 124 132 152 208 236 230 242 251 268 272 275 276 279 281 284 283 283 283 282 281 281 283 283 283 281 280 279 278 278 277
115 116 117 120 124 127 127 134 140 158 187 221 244 248 250 257 264 275 282 284 286 286 282 281 280 281 280 280 280 280 280 280 279 278 277 276 275 274
96 94 98 109 123 129 136 153 168 191 211 231 246 255 258 262 268 282 287 293 291 287 283 280 281 278 279 277 276 274 275 276 277 276 276 275 274 272
100 95 96 97 112 126 159 190 202 215 228 240 255 260 269 277 283 286 292 294 296 290 290 288 287 283 280 276 277 278 278 278 278 278 277 277 276 274
99 102 102 105 102 109 220 256 246 251 252 259 266 271 281 286 292 289 284 283 282 286 291 287 285 281 280 276 278 278 279 280 281 281 279 278 275 273
95 101 109 118 144 203 222 236 246 249 256 264 272 279 281 283 277 277 281 282 281 277 272 278 281 280 283 280 279 278 279 280 281 281 280 280 279 278
105 116 132 170 229 254 250 252 261 263 257 267 277 280 282 281 282 283 279 278 282 284 282 277 280 289 287 281 278 278 277 278 280 281 282 281 281 280
128 144 197 295 288 284 280 273 277 288 292 285 278 275 275 275 274 265 263 265 273 281 274 271 285 303 294 277 279 284 283 280 279 278 278 279 279 278
102 21 355 316 306 309 305 289 294 298 295 293 290 285 279 272 265 260 255 251 255 258 267 280 279 278 271 286 289 285 282 282 284 282 281 280 278 274
354 336 327 313 314 321 311 306 301 297 289 285 283 283 286 287 285 279 270 260 252 257 267 271 267 269 274 280 282 285 286 288 286 283 281 281 278 275
338 332 330 334 322 307 303 304 298 283 278 278 281 286 289 289 288 281 272 262 258 256 256 252 251 257 259 265 274 283 292 291 282 276 275 275 276 275
314 316 311 313 298 294 295 284 276 280 287 284 287 290 292 284 277 279 285 292 287 277 252 240 243 248 257 263 269 276 277 277 279 280 279 277 273 267
313 290 291 296 292 289 287 285 278 270 269 277 283 285 285 284 283 285 281 282 275 285 292 281 257 249 251 258 266 266 269 271 271 276 278 278 273 266
300 287 293 296 300 304 301 294 288 279 279 280 278 277 281 284 286 284 277 275 277 281 286 291 291 286 276 257 237 255 264 270 275 274 275 278 278 272
283 285 289 291 291 289 288 287 285 284 283 275 273 275 276 277 279 281 281 279 278 281 283 285 284 284 289 294 275 233 258 277 282 280 276 273 278 279
278 280 282 284 285 286 285 285 286 287 279 275 274 272 271 272 275 277 279 280 283 286 286 282 276 274 278 287 291 287 264 266 275 280 282 280 277 278
281 279 280 281 281 281 280 280 280 280 280 279 275 272 270 269 272 274 278 281 282 281 282 282 279 280 279 279 278 280 279 259 256 267 280 283 284 284
281 280 280 279 280 279 278 278 278 277 278 274 274 274 272 269 271 275 276 279 280 279 281 282 283 283 278 278 282 288 293 290 274 260 258 258 268 275
281 281 280 280 275 274 273 274 275 276 276 276 275 275 274 272 272 273 276 277 279 281 284 286 287 283 281 281 285 288 291 295 295 293 278 257 250 254